Volver al catálogo

KUIPER-00512

ActivoComunicacionesLEO
NORAD 68889·PAYLOAD·🇺🇸 United States

Lanzado Apr 28, 2026 desde Cape Canaveral Space Force Station

Loading…

Próximos Pases (próximas 24 horas)

TLE

ActualizadoSource: CelesTrak SupGP

Época: Sep 14, 2026, 22:27 UTC

1 68889C 26095AB  26257.93589120 -.00017077  00000+0 -22356-2 0  2570
2 68889  51.9007 211.3022 0000872  72.0845  38.0389 14.79946317    10

Sigue KUIPER-00512 en tiempo real con AllMySat

Download on the App Store